CAPE
1 1 0 0 0 0 2 0 0 0 0 0 0 0 0 0 0 0 0 0 28 51 48 56 56 50 40 44 50 48 31 29 22
2 1 0 0 1 1 0 0 0 0 0 0 0 0 0 0 0 0 0 40 43 31 34 18 10 9 13 26 31 38 22 15 35
1 0 0 3 2 2 0 0 0 0 0 0 0 0 0 0 0 2 25 24 16 11 12 19 9 22 9 7 15 21 16 20 40
1 1 3 4 6 3 0 0 0 0 0 0 0 0 0 0 1 20 16 9 4 9 3 6 9 19 11 10 10 3 10 18 46
3 7 5 4 5 3 1 0 0 0 0 0 0 0 0 0 16 24 19 8 3 3 3 7 9 20 3 8 12 7 13 18 30
5 4 3 2 5 1 1 0 0 0 0 0 0 0 0 10 9 6 0 5 6 2 5 3 3 8 11 11 9 6 9 4 9
2 6 7 4 1 0 0 0 0 0 0 0 0 0 6 9 3 2 0 2 5 5 3 1 2 5 19 5 8 8 10 9 5
0 3 7 2 0 0 0 0 0 0 0 0 0 0 8 1 1 3 1 6 5 9 2 3 10 33 6 7 11 11 10 7 6
0 0 0 0 0 0 0 0 0 0 0 0 0 0 2 3 2 10 0 6 6 8 5 3 30 6 4 9 7 3 8 9 9
0 0 0 0 0 0 0 0 0 0 0 0 0 2 1 0 0 15 5 0 7 4 12 4 5 7 13 11 10 8 9 7 2
0 0 0 0 0 0 0 0 0 0 0 0 0 0 0 0 0 1 0 0 0 2 9 5 7 9 1 8 8 5 3 7 5
0 0 0 0 0 0 0 0 0 0 0 0 0 0 0 0 0 1 0 0 2 0 4 4 18 5 5 8 9 6 9 6 1
0 0 0 0 0 0 0 0 0 0 0 0 0 0 0 0 0 0 0 0 0 0 0 2 1 11 10 4 9 0 2 7 7
0 0 0 0 0 0 0 0 0 0 0 0 0 0 0 0 0 0 0 0 0 0 0 0 1 3 3 5 7 3 7 2 5
0 0 0 0 0 0 0 0 0 0 0 0 0 0 0 0 0 0 0 0 0 0 0 0 0 0 2 8 1 11 4 4 6
0 0 0 0 0 0 0 0 0 0 0 0 0 0 0 0 0 0 0 0 0 0 0 0 0 0 0 0 2 10 4 4 4
0 0 0 0 0 0 0 0 0 0 0 0 0 0 0 0 0 0 0 0 0 0 0 0 0 0 0 0 0 0 11 8 3
0 0 0 0 0 0 0 0 0 0 0 0 0 0 0 0 0 0 0 0 0 0 0 0 0 0 0 0 0 0 2 6 2
0 0 0 0 0 0 0 0 0 0 0 0 0 0 0 0 0 0 0 0 0 0 0 0 0 0 0 0 0 0 2 7 2
0 0 0 0 0 0 0 0 0 0 0 0 0 0 0 0 0 0 0 0 0 0 0 0 0 0 0 0 0 0 0 1 3
CIN
-0 -0 -0 -0 -0 -0 -0 -0 -0 -0 -0 -0 -0 -0 -0 -0 -0 -0 -0 -0 -0 -0 -1 -0 -0 -0 -0 -0 -0 -0 -1 -0 -0
-0 -0 -0 -0 -0 -0 -0 -0 -0 -0 -0 -0 -0 -0 -0 -0 -0 -0 -1 -1 -0 -0 -0 -0 -1 -1 -2 -5 -6 -5 -0 -0 -0
-0 -0 -0 -0 -0 -0 -0 -0 -0 -0 -0 -0 -2 -0 -0 -0 -0 -4 -2 -1 -0 -0 -1 -2 -1 -1 -2 -0 -1 -3 -1 -1 -0
-0 -0 -0 -0 -0 -0 -0 -0 -0 -0 -0 -0 -5 -0 -0 -0 -1 -3 -1 -0 -0 -0 -0 -0 -0 -1 -1 -0 -0 -3 -2 -0 -0
-0 -0 -0 -0 -0 -0 -0 -0 -0 -0 -0 -0 -0 -0 -0 -0 -1 -1 -0 -0 -2 -0 -0 -1 -1 -0 -1 -0 -1 -0 -0 -1 -0
-1 -1 -0 -0 -0 -0 -0 -0 -0 -0 -0 -0 -0 -0 -0 -9 -7 -3 -0 -0 -0 -0 -0 -0 -0 -0 -1 -0 -0 -0 -0 -1 -1
-2 -2 -1 -0 -0 -0 -0 -0 -0 -0 -0 -0 -0 -0 -24 -23 -24 -15 -0 -0 -0 -0 -0 -0 -0 -1 -1 -1 -0 -0 -0 -1 -0
-0 -3 -3 -1 -0 -0 -0 -0 -0 -0 -0 -0 -0 -0 -26 -21 -20 -7 -0 -0 -0 -0 -1 -0 -0 -0 -1 -1 -0 -0 -0 -1 -0
-0 -0 -3 -0 -0 -0 -0 -0 -0 -0 -0 -0 -0 -0 -36 -26 -12 -6 -0 -0 -1 -0 -0 -0 -0 -1 -0 -0 -0 -1 -1 -0 -0
-0 -0 -0 -0 -0 -0 -0 -0 -0 -0 -0 -0 -18 -54 -25 -17 -7 -12 -2 -0 -0 -0 -0 -0 -0 -0 -1 -0 -0 -0 -0 -0 -0
-0 -0 -0 -0 -0 -0 -0 -0 -0 -0 -0 -0 -14 -0 -0 -0 -0 -7 -0 -0 -0 -0 -0 -0 -0 -1 -0 -0 -1 -1 -0 -0 -0
-0 -0 -0 -0 -0 -0 -0 -0 -0 -0 -0 -0 -2 -0 -0 -0 -0 -28 -0 -0 -2 -0 -1 -3 -1 -2 -0 -0 -0 -0 -0 -0 -0
-0 -0 -0 -0 -0 -0 -0 -0 -0 -0 -0 -0 -0 -0 -0 -0 -0 -0 -0 -0 -0 -0 -0 -0 -0 -0 -1 -1 -0 -0 -1 -0 -0
-0 -0 -0 -0 -0 -0 -0 -0 -0 -0 -0 -0 -12 -0 -0 -0 -0 -0 -0 -0 -0 -0 -0 -0 -1 -1 -0 -0 -0 -1 -0 -0 -0
-0 -0 -0 -0 -0 -0 -0 -0 -0 -0 -0 -0 -0 -0 -0 -0 -0 -0 -0 -0 -0 -0 -0 -0 -0 -0 -4 -1 -0 -1 -0 -0 -0
-0 -0 -0 -0 -0 -0 -0 -0 -0 -0 -0 -0 -0 -0 -0 -0 -0 -0 -0 -0 -0 -0 -0 -0 -0 -0 -0 -0 -2 -1 -0 -0 -0
-0 -0 -0 -0 -0 -0 -0 -0 -0 -0 -0 -0 -0 -0 -0 -0 -0 -0 -0 -0 -0 -0 -0 -0 -0 -0 -0 -0 -0 -0 -5 -1 -0
-0 -0 -0 -0 -0 -0 -0 -0 -0 -0 -0 -0 -0 -0 -0 -0 -0 -0 -0 -0 -0 -0 -0 -0 -0 -0 -0 -0 -0 -0 -12 -1 -0
-0 -0 -0 -0 -0 -0 -0 -0 -0 -0 -0 -0 -0 -0 -0 -0 -0 -0 -0 -0 -0 -0 -0 -0 -0 -0 -0 -0 -0 -0 -7 -1 -0
-0 -0 -0 -0 -0 -0 -0 -0 -0 -0 -0 -0 -0 -0 -0 -0 -0 -0 -0 -0 -0 -0 -0 -0 -0 -0 -0 -0 -0 -0 -0 -0 -0
Wind_Speed
1 1 3 5 5 4 5 6 8 10 12 13 12 12 16 21 22 25 27 28 28 29 30 30 31 31 31 31 30 30 31 32 33
2 1 3 3 3 4 5 5 7 8 10 10 11 12 20 21 23 25 26 27 27 27 28 29 30 30 30 29 29 30 31 31 32
3 2 3 3 2 3 4 5 6 8 9 9 11 19 19 21 22 24 25 25 24 25 26 28 30 30 29 29 29 29 30 30 31
5 3 3 3 2 2 3 4 6 7 8 10 13 17 18 19 22 24 24 24 23 23 25 27 28 30 30 30 29 29 29 29 31
6 5 3 4 3 3 3 5 6 6 6 8 12 16 18 19 21 22 23 23 23 22 24 26 28 29 29 28 29 28 28 29 30
8 6 5 5 4 4 4 6 6 5 6 6 12 15 16 17 20 21 22 22 22 20 23 25 26 28 29 28 28 29 28 28 28
10 8 6 6 5 4 6 6 6 5 6 8 12 13 16 16 18 19 21 21 22 19 21 23 26 27 28 28 27 28 28 28 28
12 10 8 6 6 6 6 6 3 4 6 9 11 13 14 16 17 19 20 20 21 19 20 22 24 27 27 28 27 27 28 29 29
13 12 10 8 7 8 8 5 2 1 5 8 10 13 13 15 16 18 19 19 20 18 18 21 23 25 27 27 27 28 28 28 29
15 14 12 10 9 8 7 8 6 3 4 7 10 11 13 15 16 17 17 18 18 17 17 19 21 22 24 26 26 26 27 28 28
17 16 14 12 10 9 9 6 5 2 4 5 9 11 12 14 15 15 15 16 16 15 16 17 19 21 23 24 25 26 26 27 27
18 17 16 14 12 10 9 6 5 3 3 6 8 10 11 13 13 13 13 14 14 14 15 16 17 19 21 22 23 24 24 25 26
19 18 16 14 12 10 9 7 6 4 4 6 7 8 9 10 9 11 12 13 12 13 14 15 16 17 19 20 21 22 23 23 24
19 19 17 15 13 12 10 9 6 4 4 3 5 5 6 7 8 9 11 12 12 12 13 14 14 16 17 18 19 20 21 22 23
20 19 17 16 14 13 11 10 7 5 3 1 3 5 7 7 7 8 9 10 11 11 12 12 14 14 16 18 18 19 20 21 22
20 19 18 17 16 14 12 11 8 6 4 2 4 9 10 8 7 8 6 8 8 9 10 11 13 14 14 15 17 18 17 18 20
21 20 19 18 16 15 13 12 11 9 6 6 6 9 13 14 10 9 6 5 6 7 8 9 11 13 14 14 15 16 18 17 18
21 20 20 19 18 17 15 14 12 10 11 6 12 11 10 8 15 12 9 5 5 6 6 6 8 10 12 13 14 15 17 16 17
22 21 20 20 19 18 17 15 14 11 11 10 16 16 9 11 12 15 12 6 4 4 5 6 6 8 9 11 12 13 14 14 15
23 22 21 21 20 20 18 17 15 15 14 15 17 15 15 12 14 12 9 11 7 4 3 4 5 6 8 9 10 11 12 12 14
Wind_Direction
205 74 61 61 58 52 61 59 59 60 62 60 39 25 36 55 52 54 66 66 63 60 56 53 51 51 48 44 41 40 41 41 48
201 118 77 70 68 71 67 62 64 64 66 51 29 18 65 56 59 65 65 62 54 51 47 48 48 48 46 43 42 42 42 44 43
211 169 105 94 94 88 80 74 74 77 63 40 30 70 62 59 58 61 64 55 48 45 45 49 50 50 52 50 46 44 48 42 38
213 186 135 131 140 120 102 90 89 80 58 44 53 63 62 62 60 64 59 52 48 45 48 50 53 52 53 49 50 51 51 43 41
207 184 165 147 146 149 118 103 97 79 49 36 45 63 65 61 61 56 58 52 51 42 46 48 51 55 53 50 48 53 50 49 44
212 208 169 151 148 149 127 114 105 78 40 16 54 66 62 62 60 55 51 52 49 37 41 45 53 56 56 47 47 49 51 51 47
218 203 183 160 158 163 136 124 110 72 27 39 64 57 67 59 58 55 51 51 51 37 41 45 51 59 56 50 53 47 51 51 50
217 212 208 189 175 184 166 142 134 67 42 53 60 62 63 58 56 54 53 52 50 37 36 43 49 55 51 53 51 52 52 51 49
217 215 208 202 190 165 168 158 148 8 52 58 59 66 60 60 54 53 53 50 46 35 34 44 45 46 51 51 57 57 53 53 53
216 213 210 201 179 175 189 223 238 121 62 61 66 69 66 62 56 53 48 44 41 26 31 41 42 45 50 50 54 55 54 52 57
216 213 211 205 200 206 219 212 148 139 82 68 66 68 69 66 62 55 43 37 32 19 22 31 37 45 48 50 51 51 56 55 56
213 212 212 211 212 216 208 205 154 132 85 85 78 74 73 69 62 50 35 34 26 15 15 27 32 37 43 46 43 45 45 48 50
213 212 214 207 212 201 201 194 165 141 109 94 81 74 67 59 43 34 32 35 24 15 15 23 25 32 32 36 39 40 39 40 42
212 214 213 208 206 204 201 207 188 157 129 93 66 47 44 38 26 29 36 38 33 26 24 21 13 15 24 30 35 36 39 39 36
213 213 210 209 207 205 205 199 202 185 150 77 7 348 342 2 17 25 43 41 42 40 37 32 19 13 12 15 30 33 36 37 33
212 214 212 211 210 209 205 207 194 212 204 264 313 309 316 332 338 338 42 35 41 43 40 30 23 17 15 17 20 23 38 37 35
213 215 215 215 212 212 209 211 220 231 211 257 295 305 302 300 313 315 339 21 38 37 34 34 30 23 20 16 19 20 20 35 31
217 218 219 218 219 219 218 214 220 217 246 195 293 303 310 300 294 298 307 333 358 5 31 37 37 25 23 18 21 19 16 34 34
220 220 221 222 225 224 225 223 228 229 236 240 283 293 313 304 302 290 295 306 328 343 352 7 23 25 24 19 20 18 20 32 33
224 224 226 228 229 230 229 230 232 240 247 255 269 288 294 305 306 301 288 294 302 310 325 344 357 6 16 18 23 18 25 34 32